This is the latest recevied weather packets stored in our database for station/object DL4JCP-6. If no packets are shown the sender has not sent any weather packets the latest 10 day(s).
| Time | Temp. | Humidity | Pressure | Rain* | Wind** | Luminosity | Snow |
|---|---|---|---|---|---|---|---|
| 1777952892 | 10.56° C | 89% | 1011.6 hPa | 0 mm | - | - | - |
| 1777951992 | 10.56° C | 89% | 1011.8 hPa | 0 mm | - | - | - |
| 1777951092 | 10.56° C | 89% | 1011.9 hPa | 0 mm | - | - | - |
| 1777950192 | 10.56° C | 89% | 1012 hPa | 0 mm | - | - | - |
| 1777949292 | 10.56° C | 89% | 1012.2 hPa | 0 mm | - | - | - |
| 1777948392 | 10.56° C | 89% | 1012.3 hPa | 0 mm | - | - | - |
| 1777947492 | 10° C | 90% | 1012.4 hPa | 0 mm | - | - | - |
| 1777946591 | 10° C | 89% | 1012.2 hPa | 0 mm | - | - | - |
| 1777945694 | 10.56° C | 88% | 1012.4 hPa | 0 mm | - | - | - |
| 1777944792 | 10.56° C | 88% | 1012.8 hPa | 0 mm | - | - | - |
| 1777943891 | 11.11° C | 87% | 1012.8 hPa | 0 mm | - | - | - |
| 1777942991 | 11.11° C | 86% | 1012.9 hPa | 0 mm | - | - | - |
| 1777942095 | 12.22° C | 85% | 1013.3 hPa | 0 mm | - | - | - |
| 1777941195 | 12.22° C | 85% | 1013.4 hPa | 0 mm | - | - | - |
| 1777940295 | 12.22° C | 85% | 1013.6 hPa | 0 mm | - | - | - |
| 1777939395 | 12.22° C | 85% | 1013.6 hPa | 0 mm | - | - | - |
| 1777938494 | 12.22° C | 85% | 1013.8 hPa | 0 mm | - | - | - |
| 1777937594 | 12.22° C | 84% | 1013.9 hPa | 0 mm | - | - | - |
| 1777936694 | 12.78° C | 84% | 1013.9 hPa | 0 mm | - | - | - |
| 1777935794 | 12.78° C | 84% | 1014 hPa | 0 mm | - | - | - |
| 1777934894 | 12.78° C | 84% | 1014.1 hPa | 0 mm | - | - | - |
| 1777933994 | 12.78° C | 85% | 1014.1 hPa | 0 mm | - | - | - |
| 1777933094 | 12.78° C | 85% | 1014 hPa | 0 mm | - | - | - |
| 1777932193 | 12.78° C | 84% | 1013.8 hPa | 0 mm | - | - | - |
| 1777931293 | 12.78° C | 84% | 1013.8 hPa | 0 mm | - | - | - |
* Rain latest hour (hover to see other rain measurements)
** Current wind speed in m/s (hover to see current wind gust speed)